7 * 24
多渠道服务支持
STARLINK-37516(NORAD编号68915)是美国太空探索技术公司(SpaceX)星链(Starlink)低轨互联网星座中的一颗卫星,属于星链卫星组网的组成部分。星链计划旨在近地轨道部署数万颗卫星,为全球提供高速、低时延的卫星互联网服务,填补偏远地区网络覆盖空白,同时也支持特殊场景通信需求。作为星链星座的一员,该卫星承担天基通信转发任务,助力构建覆盖全球的卫星互联网络,推进SpaceX全球卫星互联网布局的实现。
美国
(US)
| 数据来源 | 国际轨道数据 |
| 星历时间: | 2026-05-24T12:00:02+0800 1天前 查看轨道信息 |
| 半长轴: | 6797.202km |
| 偏心率: | 0.000182 |
| 轨道倾角: | 97.285° |
| 近地点辐角 | 93.613° |
| 升交点赤经 | 340.020° |
| 平近点角 | 297.717° |
| 近地点: | 417.827km |
| 远地点: | 420.303km |
| 周期: | 92.951分钟 |
| 每日圈数: | 15.492003 |